FW2795 Weather Reports


time (UTC)temp
F
wind
direction
speed
knots
gust
knots
rain 1hr
in
rain 24hr
in
rain mn
in
humidity
%
barometer
mb
20260510162550 57 30 2.6 7.0 0.00 0.00 0.00 54 1015.4
20260510162049 57 17 1.7 3.5 0.00 0.00 0.00 55 1015.3
20260510161604 57 11 3.5 6.1 0.00 0.00 0.00 54 1015.5
20260510160608 56 1 3.5 6.1 0.00 0.00 0.00 54 1015.6
20260510160113 57 7 5.2 9.6 0.00 0.00 0.00 54 1015.6
20260510155557 57 50 1.7 2.6 0.00 0.00 0.00 55 1015.7
20260510155057 57 61 3.5 5.2 0.00 0.00 0.00 55 1015.7
20260510154557 56 50 6.1 12.2 0.00 0.00 0.00 56 1015.9
20260510154057 56 53 5.2 9.6 0.00 0.00 0.00 56 1016.1
20260510153609 56 84 2.6 7.0 0.00 0.00 0.00 57 1016.0
20260510153058 56 79 5.2 8.7 0.00 0.00 0.00 57 1016.0
20260510152558 56 77 4.3 7.8 0.00 0.00 0.00 58 1016.1
20260510152053 56 53 1.7 3.5 0.00 0.00 0.00 58 1016.2
20260510151553 56 67 3.5 5.2 0.00 0.00 0.00 58 1016.1
20260510151052 56 98 2.6 6.1 0.00 0.00 0.00 57 1016.2
20260510150552 56 102 2.6 7.8 0.00 0.00 0.00 56 1016.4
20260510150106 56 126 2.6 7.0 0.00 0.00 0.00 57 1016.4
20260510145551 56 108 2.6 4.3 0.00 0.00 0.00 57 1016.3
20260510145051 56 133 2.6 5.2 0.00 0.00 0.00 58 1016.4
20260510144550 56 151 5.2 7.8 0.00 0.00 0.00 58 1016.4
20260510144050 56 76 3.5 5.2 0.00 0.00 0.00 59 1016.4
20260510143604 56 74 1.7 7.8 0.00 0.00 0.00 59 1016.5
20260510143049 56 44 3.5 7.0 0.00 0.00 0.00 60 1016.5
20260510142603 56 50 1.7 3.5 0.00 0.00 0.00 60 1016.6
20260510142053 56 42 1.7 3.5 0.00 0.00 0.00 59 1016.6
20260510141609 57 50 5.2 9.6 0.00 0.00 0.00 58 1016.6
20260510141102 57 63 3.5 5.2 0.00 0.00 0.00 59 1016.7
20260510140602 57 37 1.7 4.3 0.00 0.00 0.00 61 1016.8
20260510140117 56 38 3.5 7.0 0.00 0.00 0.00 62 1017.0
20260510135601 56 66 3.5 6.1 0.00 0.00 0.00 62 1016.7
20260510135101 56 71 1.7 3.5 0.00 0.00 0.00 61 1016.7
20260510134601 56 79 5.2 9.6 0.00 0.00 0.00 62 1016.6
20260510134058 56 71 5.2 7.0 0.00 0.00 0.00 61 1016.9
20260510133612 56 92 1.7 2.6 0.00 0.00 0.00 62 1016.7
20260510133109 56 81 5.2 7.8 0.00 0.00 0.00 63 1016.8
20260510132602 56 38 4.3 7.0 0.00 0.00 0.00 63 1017.0
20260510132101 56 32 1.7 2.6 0.00 0.00 0.00 63 1017.0
20260510131601 55 40 2.6 4.3 0.00 0.00 0.00 63 1016.9
20260510131101 55 33 1.7 4.3 0.00 0.00 0.00 63 1016.9
20260510130550 55 24 1.7 4.3 0.00 0.00 0.00 63 1017.1
20260510130120 55 24 5.2 10.4 0.00 0.00 0.00 64 1017.1
20260510125550 55 61 1.7 2.6 0.00 0.00 0.00 63 1017.0
20260510125104 55 63 3.5 9.6 0.00 0.00 0.00 64 1017.3
20260510124554 55 71 3.5 7.0 0.00 0.00 0.00 63 1017.2
20260510124108 56 45 3.5 6.1 0.00 0.00 0.00 64 1017.2
20260510123603 56 68 3.5 5.2 0.00 0.00 0.00 64 1017.3
20260510123102 56 71 3.5 7.0 0.00 0.00 0.00 63 1017.3
20260510122602 56 48 2.6 5.2 0.00 0.00 0.00 64 1017.2
20260510122102 56 57 2.6 3.5 0.00 0.00 0.00 65 1017.2
20260510121601 56 84 4.3 7.0 0.00 0.00 0.00 66 1017.3
20260510121101 55 119 4.3 7.0 0.00 0.00 0.00 66 1017.2
20260510120601 55 155 1.7 5.2 0.00 0.00 0.00 68 1017.4
20260510120115 55 133 3.5 6.1 0.00 0.00 0.00 67 1017.3
20260510115600 55 156 3.5 7.0 0.00 0.00 0.00 66 1017.5
20260510115059 56 158 5.2 7.0 0.00 0.00 0.00 65 1017.5
20260510114559 56 119 4.3 9.6 0.00 0.00 0.00 64 1017.4
20260510114058 56 77 3.5 7.0 0.00 0.00 0.00 64 1017.8
20260510113558 57 67 6.1 9.6 0.00 0.00 0.00 64 1017.7
20260510113058 57 76 3.5 7.0 0.00 0.00 0.00 63 1017.6
20260510112612 57 68 4.3 10.4 0.00 0.00 0.00 63 1017.8
20260510112102 57 60 4.3 9.6 0.00 0.00 0.00 61 1017.7
20260510111602 58 70 7.0 14.8 0.00 0.00 0.00 61 1017.7
20260510111051 58 58 1.7 2.6 0.00 0.00 0.00 61 1017.7
20260510110551 58 63 5.2 7.0 0.00 0.00 0.00 61 1017.7
20260510110120 58 71 2.6 5.2 0.00 0.00 0.00 61 1018.0
20260510105550 58 81 2.6 5.2 0.00 0.00 0.00 61 1017.6
20260510105050 58 80 4.3 7.8 0.00 0.00 0.00 62 1017.9
20260510104549 58 68 6.1 8.7 0.00 0.00 0.00 63 1017.9
20260510104049 57 54 3.5 6.1 0.00 0.00 0.00 64 1017.8
20260510103604 56 45 3.5 7.8 0.00 0.00 0.00 63 1018.0
20260510103103 57 44 6.1 10.4 0.00 0.00 0.00 62 1018.0
20260510102553 58 50 6.1 9.6 0.00 0.00 0.00 61 1018.0
20260510102052 59 39 7.0 11.3 0.00 0.00 0.00 62 1018.0
20260510101552 58 65 6.1 7.8 0.00 0.00 0.00 62 1017.9
20260510101052 58 77 3.5 9.6 0.00 0.00 0.00 63 1018.0
20260510100551 57 80 1.7 3.5 0.00 0.00 0.00 64 1018.0
20260510100121 58 86 7.8 10.4 0.00 0.00 0.00 62 1017.9
20260510095551 57 76 6.1 8.7 0.00 0.00 0.00 62 1017.8
20260510095105 57 19 2.6 7.8 0.00 0.00 0.00 62 1018.0
20260510094555 57 5 3.5 7.0 0.00 0.00 0.00 62 1017.9
20260510094109 58 359 4.3 7.0 0.00 0.00 0.00 62 1018.0
20260510093559 57 14 0.9 1.7 0.00 0.00 0.00 64 1017.9
20260510093058 56 21 1.7 3.5 0.00 0.00 0.00 64 1018.0
20260510092603 56 27 6.1 9.6 0.00 0.00 0.00 63 1018.1
20260510092053 56 40 3.5 6.1 0.00 0.00 0.00 62 1018.1
20260510091607 58 52 7.0 11.3 0.00 0.00 0.00 61 1018.2
20260510091057 57 62 7.0 9.6 0.00 0.00 0.00 62 1018.2
20260510090556 56 35 4.3 7.0 0.00 0.00 0.00 65 1018.3
20260510090126 56 36 0.9 1.7 0.00 0.00 0.00 65 1018.2
20260510085556 56 40 3.5 9.6 0.00 0.00 0.00 66 1018.3
20260510085055 56 52 3.5 7.0 0.00 0.00 0.00 66 1018.3
20260510084555 56 72 3.5 7.0 0.00 0.00 0.00 66 1018.5
20260510084109 55 57 3.5 7.0 0.00 0.00 0.00 66 1018.6
20260510083559 56 61 4.3 7.8 0.00 0.00 0.00 68 1018.5
20260510083059 55 35 4.3 7.0 0.00 0.00 0.00 68 1018.6
20260510082558 55 40 3.5 6.1 0.00 0.00 0.00 68 1018.6
20260510082058 55 66 3.5 5.2 0.00 0.00 0.00 69 1018.4
20260510081558 54 54 1.7 3.5 0.00 0.00 0.00 69 1018.5
20260510081112 54 46 2.6 6.1 0.00 0.00 0.00 70 1018.6
20260510080602 54 53 3.5 6.1 0.00 0.00 0.00 70 1018.5
20260510080132 53 78 4.3 8.7 0.00 0.00 0.00 72 1018.6
20260510075551 53 60 9.6 13.9 0.00 0.00 0.00 73 1018.7
20260510075051 53 79 3.5 7.8 0.00 0.00 0.00 74 1018.7
20260510074550 53 94 2.6 7.0 0.00 0.00 0.00 75 1018.6
20260510074050 52 89 6.1 7.0 0.00 0.00 0.00 76 1018.7
20260510073549 52 93 4.3 8.7 0.00 0.00 0.00 76 1018.5
20260510073049 52 70 3.5 5.2 0.00 0.00 0.00 76 1018.7
20260510072548 52 52 2.6 7.0 0.00 0.00 0.00 77 1018.6
20260510072103 52 58 2.6 3.5 0.00 0.00 0.00 78 1018.5
20260510071602 52 75 3.5 6.1 0.00 0.00 0.00 77 1018.5
20260510071102 52 80 6.1 9.6 0.00 0.00 0.00 77 1018.6
20260510070601 52 27 1.7 3.5 0.00 0.00 0.00 78 1018.5
20260510070116 52 8 3.5 6.1 0.00 0.00 0.00 79 1018.6
20260510065600 52 26 1.7 3.5 0.00 0.00 0.00 79 1018.3
20260510065100 52 28 1.7 5.2 0.00 0.00 0.00 79 1018.5
20260510064559 51 45 4.3 7.0 0.00 0.00 0.00 80 1018.5
20260510064059 51 74 3.5 6.1 0.00 0.00 0.00 80 1018.5
20260510063559 51 62 1.7 3.5 0.00 0.00 0.00 80 1018.3
20260510063058 51 56 3.5 5.2 0.00 0.00 0.00 80 1018.3
20260510062557 51 72 1.7 7.0 0.00 0.00 0.00 81 1018.3
20260510062057 51 72 3.5 6.1 0.00 0.00 0.00 81 1018.2
20260510061557 51 77 3.5 5.2 0.00 0.00 0.00 81 1018.2
20260510061111 51 70 0.0 1.7 0.00 0.00 0.00 81 1018.3
20260510060601 51 66 2.6 6.1 0.00 0.00 0.00 81 1018.3
20260510060116 51 67 3.5 6.1 0.00 0.00 0.00 82 1018.1
20260510055600 51 54 1.7 3.5 0.00 0.00 0.00 82 1018.2
20260510055100 51 59 1.7 3.5 0.00 0.00 0.00 82 1018.0
20260510054559 51 63 3.5 7.0 0.00 0.00 0.00 82 1018.0
20260510054104 51 60 1.7 3.5 0.00 0.00 0.00 82 1018.1
20260510053553 51 78 1.7 4.3 0.00 0.00 0.00 82 1018.2
20260510053108 51 72 1.7 3.5 0.00 0.00 0.00 82 1018.3
20260510052558 51 73 1.7 3.5 0.00 0.00 0.00 82 1018.2
20260510052057 50 59 0.9 1.7 0.00 0.00 0.00 82 1018.4
20260510051557 50 56 1.7 2.6 0.00 0.00 0.00 82 1018.3
20260510051056 50 45 3.5 7.0 0.00 0.00 0.00 82 1018.2
20260510050555 50 70 2.6 5.2 0.00 0.00 0.00 82 1018.4
20260510050125 50 56 1.7 3.5 0.00 0.00 0.00 82 1018.3
20260510045554 50 26 2.6 5.2 0.00 0.00 0.00 82 1018.2
20260510045054 50 348 2.6 6.1 0.00 0.00 0.00 82 1018.1
20260510044553 50 345 2.6 4.3 0.00 0.00 0.00 82 1018.2
20260510044053 50 332 1.7 3.5 0.00 0.00 0.00 82 1018.1
20260510043552 50 3 1.7 3.5 0.00 0.00 0.00 82 1018.2
20260510043052 50 10 1.7 2.6 0.00 0.00 0.00 82 1018.3
20260510042551 50 3 1.7 2.6 0.00 0.00 0.00 82 1018.4
20260510042106 50 18 1.7 2.6 0.00 0.00 0.00 83 1018.1
20260510041556 50 20 2.6 4.3 0.00 0.00 0.00 82 1018.3
20260510041055 50 45 1.7 1.7 0.00 0.00 0.00 82 1018.3
20260510040555 50 63 1.7 1.7 0.00 0.00 0.00 82 1018.3
20260510040124 50 81 1.7 3.5 0.00 0.00 0.00 82 1018.5
20260510035559 50 65 3.5 5.2 0.00 0.00 0.00 81 1018.3
20260510035059 50 93 3.5 7.8 0.00 0.00 0.00 81 1018.5
20260510034558 50 90 3.5 3.5 0.00 0.00 0.00 81 1018.5
20260510034058 50 96 2.6 4.3 0.00 0.00 0.00 81 1018.6
20260510033558 50 129 2.6 6.1 0.00 0.00 0.00 81 1018.6
20260510033057 50 328 1.7 3.5 0.00 0.00 0.00 81 1018.6
20260510032557 50 39 1.7 3.5 0.00 0.00 0.00 81 1018.6
20260510032111 50 73 2.6 3.5 0.00 0.00 0.00 81 1018.7
20260510031601 50 119 1.7 2.6 0.00 0.00 0.00 81 1018.7
20260510031100 50 105 1.7 3.5 0.00 0.00 0.00 80 1018.5
20260510030559 50 85 0.9 2.6 0.00 0.00 0.00 80 1018.7
20260510030114 50 87 1.7 3.5 0.00 0.00 0.00 80 1018.5
20260510025559 51 94 2.6 5.2 0.00 0.00 0.00 80 1018.8
20260510025058 51 64 2.6 3.5 0.00 0.00 0.00 80 1018.6
20260510024627 51 52 1.7 5.2 0.00 0.00 0.00 80 1018.5
20260510024056 51 54 1.7 3.5 0.00 0.00 0.00 80 1018.7
20260510023556 51 43 1.7 3.5 0.00 0.00 0.00 80 1018.6
20260510023055 51 41 4.3 7.8 0.00 0.00 0.00 80 1018.7
20260510022555 51 36 3.5 4.3 0.00 0.00 0.00 80 1018.6
20260510022054 51 350 0.9 1.7 0.00 0.00 0.00 80 1018.6
20260510021609 51 351 0.0 1.7 0.00 0.00 0.00 80 1018.6
20260510021058 51 4 0.9 1.7 0.00 0.00 0.00 81 1018.7
20260510020612 51 13 0.9 1.7 0.00 0.00 0.00 81 1018.6
20260510020132 51 18 1.7 4.3 0.00 0.00 0.00 81 1018.6
20260510015606 51 19 1.7 3.5 0.00 0.00 0.00 82 1018.6
20260510015111 51 35 3.5 7.0 0.00 0.00 0.00 82 1018.6
20260510014601 51 56 3.5 5.2 0.00 0.00 0.00 82 1018.7
20260510014100 51 66 2.6 5.2 0.00 0.00 0.00 82 1018.8
20260510013550 51 39 1.7 3.5 0.00 0.00 0.00 82 1018.9
20260510013050 51 42 0.9 1.7 0.00 0.00 0.00 82 1018.8
20260510012604 51 42 0.9 1.7 0.00 0.00 0.00 82 1019.0
20260510012054 51 56 1.7 2.6 0.00 0.00 0.00 81 1018.8
20260510011554 51 67 0.9 1.7 0.00 0.00 0.00 80 1018.9
20260510011054 51 75 2.6 3.5 0.00 0.00 0.00 80 1018.8
20260510010553 51 111 1.7 2.6 0.00 0.00 0.00 78 1018.9
20260510010123 51 102 1.7 3.5 0.00 0.00 0.00 76 1018.7
20260510005552 51 123 1.7 2.6 0.00 0.00 0.00 74 1018.7
20260510005052 52 93 1.7 3.5 0.00 0.00 0.00 73 1018.5
20260510004552 52 73 1.7 3.5 0.00 0.00 0.00 72 1018.6
20260510004052 52 56 1.7 2.6 0.00 0.00 0.00 71 1018.8
20260510003551 52 46 3.5 5.2 0.00 0.00 0.00 69 1018.8
20260510003051 53 39 0.9 1.7 0.00 0.00 0.00 67 1018.6
20260510002551 53 36 3.5 6.1 0.00 0.00 0.00 63 1018.8
20260510002105 53 14 1.7 4.3 0.00 0.00 0.00 63 1018.7
20260510001555 53 32 1.7 5.2 0.00 0.00 0.00 62 1018.6
20260510001055 53 18 1.7 2.6 0.00 0.00 0.00 61 1018.6
20260510000554 54 359 1.7 3.5 0.00 0.00 0.00 58 1018.7
20260510000123 54 28 3.5 7.0 0.00 0.00 0.00 55 1018.8
20260509235557 54 62 1.7 3.5 0.00 0.00 0.00 54 1018.6
20260509235047 54 77 2.6 4.3 0.00 0.00 0.00 53 1018.6
20260509234546 54 37 1.7 3.5 0.00 0.00 0.00 53 1018.6
20260509234101 55 65 1.7 2.6 0.00 0.00 0.00 53 1018.4
20260509233605 55 73 3.5 7.0 0.00 0.00 0.00 53 1018.5
20260509233055 55 55 3.5 6.1 0.00 0.00 0.00 53 1018.5
20260509232559 55 67 0.9 1.7 0.00 0.00 0.00 54 1018.5
20260509232049 56 67 1.7 2.6 0.00 0.00 0.00 54 1018.5
20260509231604 56 52 1.7 6.1 0.00 0.00 0.00 53 1018.5
20260509231053 56 38 1.7 3.5 0.00 0.00 0.00 53 1018.5
20260509230553 56 70 1.7 3.5 0.00 0.00 0.00 53 1018.5
20260509230107 56 78 1.7 2.6 0.00 0.00 0.00 53 1018.5
20260509225552 56 90 2.6 5.2 0.00 0.00 0.00 52 1018.3
20260509225052 56 72 0.0 0.9 0.00 0.00 0.00 52 1018.6
20260509224551 56 71 1.7 2.6 0.00 0.00 0.00 52 1018.3
20260509224106 56 71 3.5 4.3 0.00 0.00 0.00 52 1018.3
20260509223555 56 53 1.7 3.5 0.00 0.00 0.00 52 1018.3
20260509223055 57 61 0.9 1.7 0.00 0.00 0.00 52 1018.4
20260509222554 57 63 0.0 1.7 0.00 0.00 0.00 52 1018.3
20260509222054 57 50 0.9 1.7 0.00 0.00 0.00 52 1018.4
20260509221608 57 53 0.9 2.6 0.00 0.00 0.00 52 1018.3
20260509221058 57 52 1.7 3.5 0.00 0.00 0.00 51 1018.3
20260509220557 57 22 0.9 1.7 0.00 0.00 0.00 51 1018.2
20260509220112 58 27 1.7 1.7 0.00 0.00 0.00 51 1018.3
20260509215556 58 354 1.7 3.5 0.00 0.00 0.00 51 1018.2
20260509215056 58 143 1.7 2.6 0.00 0.00 0.00 51 1018.5
20260509214556 58 94 0.9 1.7 0.00 0.00 0.00 52 1018.5
20260509214056 58 105 1.7 3.5 0.00 0.00 0.00 52 1018.5
20260509213555 59 62 1.7 2.6 0.00 0.00 0.00 52 1018.3
20260509213110 59 41 0.9 1.7 0.00 0.00 0.00 51 1018.3
20260509212600 59 60 0.9 1.7 0.00 0.00 0.00 50 1018.3
20260509212059 59 105 0.0 0.9 0.00 0.00 0.00 50 1018.1
20260509211559 60 89 0.9 1.7 0.00 0.00 0.00 50 1018.1
20260509211058 60 90 1.7 3.5 0.00 0.00 0.00 50 1018.0
20260509210557 60 106 1.7 2.6 0.00 0.00 0.00 50 1018.0
20260509210112 60 117 3.5 4.3 0.00 0.00 0.00 50 1017.8
20260509205557 60 73 1.7 3.5 0.00 0.00 0.00 49 1017.8
20260509205056 60 51 2.6 3.5 0.00 0.00 0.00 49 1017.9
20260509204611 60 56 2.6 3.5 0.00 0.00 0.00 49 1017.8
20260509204100 60 63 1.7 3.5 0.00 0.00 0.00 48 1017.8
20260509203600 60 32 0.9 1.7 0.00 0.00 0.00 47 1017.8
20260509203100 61 32 0.0 1.7 0.00 0.00 0.00 46 1017.6
20260509202559 61 37 0.0 1.7 0.00 0.00 0.00 45 1017.6
20260509202104 61 44 0.9 1.7 0.00 0.00 0.00 45 1017.7
20260509201603 62 50 1.7 3.5 0.00 0.00 0.00 45 1017.7
20260509201102 62 85 1.7 2.6 0.00 0.00 0.00 45 1017.7
20260509200602 62 117 1.7 3.5 0.00 0.00 0.00 45 1017.7
20260509200117 62 172 1.7 2.6 0.00 0.00 0.00 44 1017.7
20260509195601 62 165 1.7 1.7 0.00 0.00 0.00 44 1017.2
20260509195101 62 211 1.7 2.6 0.00 0.00 0.00 44 1017.2
20260509194550 63 236 1.7 3.5 0.00 0.00 0.00 43 1017.2
20260509194105 63 19 0.9 1.7 0.00 0.00 0.00 43 1017.2
20260509193554 63 351 0.9 1.7 0.00 0.00 0.00 42 1017.2
20260509193054 64 16 0.0 1.7 0.00 0.00 0.00 42 1017.0
20260509192554 64 22 1.7 2.6 0.00 0.00 0.00 41 1017.1
20260509192053 65 48 1.7 7.0 0.00 0.00 0.00 42 1017.0
20260509191552 65 83 1.7 1.7 0.00 0.00 0.00 42 1017.2
20260509191052 65 158 0.9 2.6 0.00 0.00 0.00 41 1016.9
20260509190607 66 186 1.7 2.6 0.00 0.00 0.00 41 1016.9
20260509190111 66 176 1.7 5.2 0.00 0.00 0.00 40 1016.9
20260509185556 67 165 0.9 1.7 0.00 0.00 0.00 38 1016.9
20260509185111 67 166 2.6 4.3 0.00 0.00 0.00 38 1016.9
20260509184600 67 139 1.7 2.6 0.00 0.00 0.00 38 1016.8
20260509184100 67 87 0.9 1.7 0.00 0.00 0.00 38 1016.7
20260509183559 67 93 1.7 3.5 0.00 0.00 0.00 40 1016.7
20260509183059 68 144 0.9 3.5 0.00 0.00 0.00 40 1016.6
20260509182559 68 148 2.6 5.2 0.00 0.00 0.00 39 1016.5
20260509182048 68 156 0.9 1.7 0.00 0.00 0.00 39 1016.5
20260509181603 69 135 0.9 1.7 0.00 0.00 0.00 37 1016.5
20260509181103 70 146 3.5 6.1 0.00 0.00 0.00 34 1016.6
20260509180603 71 194 3.5 7.0 0.00 0.00 0.00 34 1016.4
20260509180117 71 104 1.7 3.5 0.00 0.00 0.00 33 1016.4
20260509175551 71 130 4.3 7.8 0.00 0.00 0.00 32 1016.5
20260509175051 71 71 2.6 5.2 0.00 0.00 0.00 32 1016.4
20260509174551 70 80 1.7 3.5 0.00 0.00 0.00 33 1016.4
20260509174106 71 65 3.5 4.3 0.00 0.00 0.00 32 1016.3
20260509173555 72 50 2.6 3.5 0.00 0.00 0.00 31 1016.4
20260509173110 71 47 1.7 3.5 0.00 0.00 0.00 31 1016.2
20260509172600 72 30 1.7 4.3 0.00 0.00 0.00 30 1016.4
20260509172059 72 8 3.5 5.2 0.00 0.00 0.00 29 1016.2
20260509171604 72 73 3.5 6.1 0.00 0.00 0.00 29 1016.3
20260509171048 71 108 1.7 3.5 0.00 0.00 0.00 32 1016.3
20260509170603 70 83 1.7 3.5 0.00 0.00 0.00 32 1016.4
20260509170117 70 83 3.5 5.2 0.00 0.00 0.00 32 1016.5
20260509165602 70 85 2.6 6.1 0.00 0.00 0.00 32 1016.5
20260509165102 70 84 2.6 5.2 0.00 0.00 0.00 32 1016.5
20260509164607 70 79 1.7 2.6 0.00 0.00 0.00 32 1016.6
20260509164056 71 104 2.6 4.3 0.00 0.00 0.00 31 1016.5
20260509163556 71 111 1.7 3.5 0.00 0.00 0.00 31 1016.7
20260509163055 72 122 2.6 6.1 0.00 0.00 0.00 29 1016.6